This demonstration page uses our WeatherBlox Daily Observations layout. Learn more.

Left ArrowRight Arrow

Hourly Observations for June 11, 2022

Temp ( °F °C ) Dew Point ( °F °C ) Humidity (%) Winds ( mph kmh ) Pressure ( in mb ) Visibility ( mi km ) Precip ( " mm )
12:53 am 00:53 Clear 78 25.6 62 16.7 58 58 Calm 30.01 1016 10 16 0.00 0.00
1:53 am 01:53 Clear 77 25 65 18.3 66 66 SSE 9 15 29.99 1016 10 16 0.00 0.00
2:53 am 02:53 Clear 76 24.4 64 17.8 67 67 SE 7 11 29.99 1016 10 16 0.00 0.00
3:53 am 03:53 Clear 75 23.9 64 17.8 69 69 ESE 8 13 29.99 1016 10 16 0.00 0.00
4:53 am 04:53 Clear 74 23.3 64 17.8 71 71 E 3 6 30.00 1016 10 16 0.00 0.00
5:53 am 05:53 Sunny 74 23.3 64 17.8 71 71 E 5 7 30.01 1016 10 16 0.00 0.00
6:53 am 06:53 Mostly Sunny 78 25.6 66 18.9 67 67 ESE 5 7 30.03 1017 10 16 0.00 0.00
7:53 am 07:53 Mostly Sunny 80 26.7 67 19.4 64 64 SSE 5 7 30.04 1017 10 16 0.00 0.00
8:53 am 08:53 Mostly Sunny 81 27.2 68 20 65 65 WSW 6 9 30.04 1017 10 16 0.00 0.00
9:53 am 09:53 Mostly Sunny 82 27.8 68 20 63 63 SW 9 15 30.03 1017 10 16 0.00 0.00
10:53 am 10:53 Mostly Sunny 83 28.3 68 20 61 61 SSW 10 17 30.02 1017 10 16 0.00 0.00
11:53 am 11:53 Partly Cloudy 83 28.3 67 19.4 59 59 S 15 24 30.02 1017 10 16 0.00 0.00
12:53 pm 12:53 Partly Cloudy 85 29.4 67 19.4 55 55 S 15 24 30.01 1016 10 16 0.00 0.00
1:53 pm 13:53 Partly Cloudy 85 29.4 67 19.4 55 55 SSW 15 24 30.01 1016 10 16 0.00 0.00
2:53 pm 14:53 Partly Cloudy 85 29.4 66 18.9 53 53 S 14 22 30.00 1016 10 16 0.00 0.00
3:53 pm 15:53 Partly Cloudy 83 28.3 67 19.4 59 59 SSW 12 19 29.99 1016 10 16 0.00 0.00
4:53 pm 16:53 Cloudy 82 27.8 67 19.4 60 60 SW 8 13 30.00 1016 10 16 0.00 0.00
5:53 pm 17:53 Cloudy 81 27.2 67 19.4 62 62 WNW 5 7 30.01 1016 10 16 0.00 0.00
6:36 pm 18:36 Mostly Sunny 81 27.2 66 18.9 61 61 NW 6 9 30.03 1017 10 16 0.00 0.00
6:53 pm 18:53 Partly Cloudy 81 27.2 67 19.4 62 62 WNW 6 9 30.03 1017 10 16 0.00 0.00
7:53 pm 19:53 Mostly Clear 80 26.7 68 20 67 67 WNW 7 11 30.05 1018 10 16 0.00 0.00
8:53 pm 20:53 Mostly Cloudy 79 26.1 68 20 69 69 NW 3 6 30.06 1018 10 16 0.00 0.00
9:53 pm 21:53 Mostly Cloudy 79 26.1 67 19.4 67 67 Calm 30.07 1018 10 16 0.00 0.00
10:53 pm 22:53 Clear 78 25.6 65 18.3 64 64 E 5 7 30.07 1018 10 16 0.00 0.00
11:53 pm 23:53 Clear 77 25 64 17.8 64 64 ESE 3 6 30.06 1018 10 16 0.00 0.00

Powered by AerisWeather